SCP
0 0 0 0 0 -0 -0 0 0 0 0 0 0 0 0 0 0 0 0 0 0 0 0 0 0 0 0 0 0 0 0 0 0 0 0 0 0 0 0 0 0 0 0 0
0 0 0 0 0 0 0 0 0 0 0 0 0 0 0 0 0 0 0 0 0 0 0 0 0 0 0 0 0 0 0 0 0 0 0 0 0 0 0 0 0 0 0 0
0 0 0 0 0 0 0 0 0 0 0 0 0 0 0 0 0 0 0 0 0 0 0 0 0 0 0 0 0 0 0 0 0 0 0 0 0 0 0 0 0 0 0 0
0 0 0 0 0 0 0 0 0 0 0 0 0 0 0 0 0 0 0 0 0 0 0 0 0 0 0 0 0 0 0 0 0 0 0 0 0 0 0 0 0 0 0 0
0 0 0 0 -0 0 0 0 0 0 0 0 0 0 0 0 0 0 0 0 0 0 0 0 0 0 0 0 0 0 0 0 0 0 0 0 0 0 0 0 0 0 0 0
0 0 0 0 0 0 0 0 0 0 0 0 0 0 0 0 0 0 0 0 0 0 0 0 0 0 0 0 0 0 0 0 0 0 0 0 0 0 0 0 0 0 0 0
0 0 0 0 0 0 0 0 0 0 0 0 0 0 0 0 0 0 0 0 0 0 0 0 0 0 0 0 0 0 0 0 0 0 0 0 0 0 0 0 0 0 0 0
0 0 0 0 0 0 0 0 0 0 0 0 0 0 0 0 0 0 0 0 0 0 0 0 0 0 0 0 0 0 0 0 0 0 0 0 0 0 0 0 0 0 0 0
0 0 0 0 0 0 0 0 0 0 0 0 0 0 0 0 0 0 0 0 0 0 0 0 0 0 0 0 0 0 0 0 0 0 0 0 0 0 0 0 0 0 0 0
0 0 0 0 0 0 0 0 0 0 0 0 0 0 0 0 0 0 0 0 0 0 0 0 0 0 0 0 0 0 0 0 0 0 0 0 0 0 0 0 0 0 0 0
0 0 0 0 0 0 0 0 0 0 0 0 0 0 0 0 0 0 0 0 0 0 0 0 0 0 0 0 0 0 0 0 0 0 0 0 0 0 0 0 0 0 0 0
0 0 0 0 0 0 0 0 0 0 0 0 0 0 0 0 0 0 0 0 0 0 0 0 0 0 0 0 0 0 0 0 0 0 0 0 0 0 0 0 0 0 0 0
0 0 0 0 0 0 0 0 0 0 0 0 0 0 0 0 0 0 0 0 0 0 0 0 0 0 0 0 0 0 0 0 0 0 0 0 0 0 0 0 0 0 0 0
0 0 0 0 0 0 0 0 0 0 0 0 0 0 0 0 0 0 0 0 0 0 0 0 0 0 0 0 0 0 0 0 0 0 0 0 0 0 0 0 0 0 0 0
0 0 0 0 0 0 0 0 0 0 0 0 0 0 0 0 0 0 0 0 0 0 0 0 0 0 0 0 0 0 0 0 0 0 0 0 0 0 0 0 0 0 0 0
0 0 0 0 0 0 0 0 0 0 0 0 0 0 0 0 0 0 0 0 0 0 0 0 0 0 0 0 0 0 0 0 0 0 0 0 0 0 0 0 0 0 0 0
0 0 0 0 0 0 0 0 0 0 0 0 0 0 0 0 0 0 0 0 0 0 0 0 0 0 0 0 0 0 0 0 0 0 0 0 0 0 0 0 0 0 0 0
0 0 0 0 0 0 0 -0 -0 0 0 0 0 0 0 0 0 0 0 0 0 0 0 0 0 0 0 0 0 0 0 0 0 0 0 0 0 0 0 0 0 0 0 0
0 0 0 0 0 0 0 0 0 0 0 0 0 0 0 0 0 0 0 0 0 0 0 0 0 0 0 0 0 0 0 0 0 0 0 0 0 0 0 0 0 0 0 0
0 0 0 0 0 0 0 0 0 0 0 0 0 0 0 0 0 0 0 0 0 0 0 0 0 0 0 0 0 0 0 0 0 0 0 0 0 0 0 0 0 0 0 0
0 0 0 0 0 0 0 0 0 0 0 0 0 0 0 0 0 0 0 0 0 0 0 0 0 0 0 0 0 0 0 0 0 0 0 0 -0 0 0 0 0 0 0 0
0 0 0 0 -0 0 0 0 0 0 0 0 0 0 0 0 0 0 0 0 0 0 0 0 0 0 0 0 0 0 0 0 0 0 0 0 0 0 0 0 0 0 0 0
0 0 0 0 0 0 0 0 0 0 0 -0 0 0 0 0 0 0 0 0 0 0 0 0 0 0 0 0 0 0 0 0 0 0 0 0 0 0 0 0 0 0 0 0
0 0 0 0 0 0 0 0 0 0 -0 0 0 0 0 0 0 0 0 0 0 0 -0 0 0 0 0 0 0 0 0 0 0 0 0 0 0 0 0 0 0 0 0 0
0 0 0 0 0 0 0 -0 -0 -0 -0 0 0 0 0 0 0 0 0 0 0 -0 -0 0 0 0 0 0 0 0 0 0 0 0 0 0 0 0 0 0 0 0 0 0
0 0 0 0 0 0 -0 -0 -0 0 -0 0 -0 0 0 0 0 0 0 0 0 -0 -0 -0 -0 -0 0 -0 0 0 0 0 0 0 0 0 0 0 0 0 0 0 0 0
0 0 0 0 0 0 -0 -0 -0 0 -0 -0 -0 0 0 0 0 0 0 0 -0 -0 -0 -0 -0 -0 0 -0 0 0 0 0 0 0 0 0 0 0 0 0 0 0 0 0
Wind_Speed_500mb
50 49 50 54 62 59 40 17 4 13 32 6 3 6 9 11 27 44 7 6 4 2 7 10 6 7 3 12 15 10 2 10 4 3 12 6 8 5 9 10 6 2 6 11
48 49 48 48 50 58 58 38 14 9 32 3 5 12 10 15 27 19 5 4 4 2 3 5 8 9 11 19 9 12 7 5 6 15 14 10 9 0 9 11 6 8 7 10
49 49 49 45 42 42 39 14 7 11 3 4 4 10 10 8 28 13 9 3 7 11 4 3 7 7 11 12 17 20 13 7 12 14 11 5 4 4 2 13 8 7 11 7
47 48 48 48 40 33 18 9 5 14 7 9 13 7 7 10 12 18 13 3 6 6 4 3 9 8 5 13 9 10 10 7 4 4 6 4 4 13 15 10 10 12 9 19
44 46 47 47 43 24 10 11 13 21 19 25 13 8 10 6 16 10 18 7 13 2 8 10 12 16 7 8 2 6 6 4 4 5 7 12 10 12 14 10 9 15 20 12
43 41 43 42 44 36 12 15 8 6 13 15 8 6 13 18 21 19 2 5 10 13 5 25 24 33 31 28 18 8 9 9 7 7 3 9 9 5 6 6 6 22 10 14
41 39 38 37 35 34 27 20 13 9 7 7 7 19 25 29 27 10 9 16 10 3 16 38 39 35 30 23 11 21 10 10 5 6 7 2 14 9 6 14 10 10 19 32
38 37 35 32 30 26 22 15 8 6 7 17 19 36 18 37 44 16 3 6 8 8 11 8 10 8 6 3 7 9 14 10 5 8 6 9 12 5 9 9 3 4 22 29
36 34 35 31 28 25 18 6 6 6 11 8 13 23 17 8 10 15 15 11 0 9 7 6 8 8 10 7 5 10 13 12 10 5 7 11 11 4 26 16 6 8 46 44
36 34 32 31 27 24 18 4 6 8 11 26 20 4 8 15 14 7 9 22 8 7 5 4 5 7 9 10 17 10 5 5 10 6 5 12 14 16 21 11 13 26 51 52
39 34 31 29 26 23 18 7 10 8 14 46 55 47 35 20 8 4 19 10 7 7 6 6 7 6 9 8 9 15 14 12 8 6 5 12 13 13 18 15 36 49 48 44
35 33 30 28 26 21 23 20 12 17 26 31 34 36 36 44 44 37 13 6 11 6 3 1 2 4 3 11 5 2 5 14 10 14 12 13 23 17 27 48 56 45 39 35
34 32 31 27 26 22 22 29 15 19 24 52 37 41 25 29 44 40 18 9 2 9 18 7 6 4 8 7 7 6 7 10 8 8 2 19 38 45 42 38 38 37 28 34
30 30 29 26 25 26 25 30 10 12 15 12 18 18 34 14 31 34 54 54 41 31 28 7 4 5 10 9 8 9 11 12 10 1 7 21 38 47 45 39 40 40 37 28
29 29 27 26 24 29 29 28 21 18 15 11 35 69 35 28 35 35 40 53 55 41 7 5 7 8 3 3 5 2 13 12 9 11 42 30 48 48 47 53 54 49 46 41
29 27 23 23 24 26 19 5 8 29 24 11 8 22 37 21 28 27 45 49 50 34 12 10 12 12 1 5 5 8 7 21 28 17 37 52 45 57 54 55 53 45 32 22
27 27 25 26 25 25 20 10 18 21 18 9 15 15 17 22 24 17 43 42 44 34 22 14 12 7 3 7 9 11 16 8 34 36 35 33 68 63 62 53 47 36 25 19
24 26 25 26 26 32 42 36 23 3 9 9 6 9 16 5 14 16 35 27 29 24 26 12 15 12 7 7 22 28 16 28 38 43 30 42 60 62 58 52 50 41 37 36
23 21 20 25 27 21 18 4 25 22 20 7 7 5 8 29 6 19 24 29 4 16 12 14 6 6 13 14 35 33 28 39 36 33 32 47 63 64 61 57 52 44 48 41
15 15 6 9 9 20 7 10 10 14 15 12 9 10 8 24 17 9 4 5 4 6 13 20 14 21 27 29 36 33 33 32 48 61 60 65 66 67 68 59 51 43 40 37
11 7 10 15 19 16 12 12 15 16 7 15 17 39 16 20 4 5 9 3 3 5 8 12 8 10 31 50 48 46 45 49 53 59 56 58 51 70 65 53 44 38 34 29
10 9 21 21 7 13 8 7 11 9 9 13 15 24 36 18 19 2 5 1 3 11 22 6 12 6 48 64 68 71 60 52 50 68 62 60 59 59 55 49 38 35 34 38
13 6 7 9 10 9 9 9 6 7 12 16 22 8 14 22 20 6 8 8 9 7 3 8 7 36 35 60 60 66 63 54 60 66 58 57 58 53 49 43 38 38 42 43
8 6 8 7 7 7 3 5 6 22 28 35 22 16 16 15 8 7 6 8 3 4 6 9 5 34 23 44 56 69 60 69 72 69 62 60 52 57 52 44 44 44 43 41
6 7 7 8 15 10 20 20 17 22 35 29 24 12 10 2 6 6 5 5 8 9 8 5 24 54 47 43 37 62 67 79 77 71 66 58 55 58 56 51 44 38 35 33
7 11 7 23 18 13 10 17 24 27 32 35 4 4 5 8 6 7 11 5 10 8 6 18 23 35 47 39 33 61 76 87 78 73 67 61 62 61 55 45 35 31 27 24
6 12 19 38 42 34 18 25 29 43 27 3 6 7 7 4 5 5 7 4 6 15 14 14 18 29 40 27 32 73 85 84 80 71 71 69 62 52 45 41 36 26 17 20
Wind_Direction_500mb
341 341 342 344 341 339 352 4 340 165 169 134 183 194 207 247 271 308 313 102 87 101 333 346 80 115 126 119 127 106 49 130 130 209 277 191 150 153 121 117 261 192 157 266
344 341 343 346 349 345 348 337 297 177 203 177 269 284 277 266 272 261 249 317 331 135 239 58 81 72 12 100 85 147 187 33 49 352 352 354 75 239 126 107 81 198 144 266
345 344 342 344 348 341 337 333 348 333 345 72 56 349 278 281 303 227 149 131 53 22 12 146 148 111 39 56 101 89 92 105 152 190 206 193 298 276 287 126 119 211 218 131
345 347 344 342 350 352 3 354 340 4 335 334 332 254 276 325 347 354 38 22 157 143 300 329 118 93 105 37 81 68 94 131 125 214 292 347 265 299 239 166 193 158 218 161
347 348 348 345 348 7 34 30 3 348 305 307 332 327 352 338 332 355 329 351 293 93 171 209 168 134 126 170 27 84 31 195 113 301 334 358 313 291 248 206 137 67 110 71
346 348 349 350 351 5 32 10 350 330 309 338 3 30 322 314 338 302 292 279 79 58 308 120 158 156 173 163 141 143 131 127 89 252 345 15 347 291 136 122 61 138 167 189
338 343 346 352 353 358 13 17 8 356 290 324 5 326 327 337 311 266 76 28 104 15 129 107 104 101 117 131 136 137 127 113 118 204 37 232 237 296 130 99 56 124 105 142
331 335 339 344 347 344 355 357 10 337 295 335 309 350 328 329 355 351 8 118 108 81 89 58 56 357 67 258 109 158 142 122 101 146 188 283 305 235 159 153 66 132 124 117
330 329 332 336 338 334 354 133 338 290 310 230 358 324 330 333 326 336 9 53 84 159 89 93 141 184 182 199 55 66 74 85 120 126 141 220 245 188 112 81 328 122 141 148
326 327 326 329 332 329 344 126 3 306 278 275 303 352 320 334 337 287 332 334 344 351 94 110 155 226 171 159 162 175 101 50 154 138 175 281 244 183 122 102 229 149 156 164
318 319 321 324 327 321 328 253 234 344 277 273 268 270 284 296 298 336 319 352 352 43 70 135 215 166 220 139 190 174 162 147 193 99 117 266 236 151 150 169 143 147 153 161
313 312 315 316 318 313 303 296 278 276 267 259 274 269 257 258 259 274 289 279 297 350 72 259 121 188 93 157 215 7 121 173 181 165 209 227 193 163 149 157 154 154 153 151
309 308 308 305 310 309 290 292 328 318 301 295 272 271 288 260 243 241 226 260 89 56 18 301 261 214 128 148 223 142 8 151 132 85 279 150 135 135 148 162 162 164 178 163
306 306 307 304 302 304 290 277 281 276 294 275 288 284 280 231 229 243 233 243 261 297 317 281 247 227 186 195 188 143 190 127 158 243 95 144 160 162 165 169 167 163 163 173
303 306 302 303 300 303 293 278 273 227 244 294 295 304 288 246 241 232 237 233 246 259 241 259 236 264 107 10 73 155 180 171 156 216 181 179 192 177 178 169 167 168 165 170
291 298 292 294 294 304 309 292 185 191 231 263 293 304 294 259 227 254 218 222 223 223 199 229 251 251 204 121 183 251 209 217 231 196 184 202 189 179 183 177 172 174 178 185
282 282 286 288 286 282 257 227 163 191 205 240 292 284 277 306 236 223 202 200 210 218 220 225 259 297 232 148 172 190 101 128 216 217 186 151 168 176 179 177 172 173 171 170
273 280 285 288 283 273 270 239 201 270 266 248 270 271 295 298 194 190 200 193 211 216 217 239 208 248 217 224 213 200 163 153 155 160 171 178 179 172 169 174 173 174 173 172
274 280 289 287 263 264 298 197 201 219 225 250 260 269 269 348 330 195 186 198 140 225 196 205 217 222 221 206 180 191 195 175 175 176 173 165 170 168 171 177 178 180 174 178
266 280 262 252 233 306 247 167 178 181 220 235 255 273 274 337 340 18 135 99 231 203 222 201 221 238 239 224 197 222 226 210 185 158 152 163 167 173 176 184 191 195 189 186
230 227 238 261 310 171 210 201 185 191 228 218 230 229 244 266 306 259 38 78 275 267 253 171 230 231 218 226 223 217 218 225 207 208 201 200 197 180 178 186 193 199 199 200
198 257 282 282 231 214 217 224 170 182 220 217 204 224 212 231 226 157 149 10 252 244 347 257 233 239 210 218 222 229 231 226 213 205 194 188 189 187 186 189 196 207 209 208
238 262 263 209 230 243 198 194 216 194 215 213 207 199 183 206 197 166 174 211 239 297 248 261 242 203 222 220 228 225 224 205 197 187 186 188 188 189 192 193 198 205 209 204
220 238 269 203 229 247 75 330 309 290 315 319 255 205 211 174 152 173 187 218 105 247 211 249 320 355 277 228 229 224 203 188 183 182 180 179 181 188 193 198 198 202 196 195
229 239 246 240 242 339 295 335 325 328 340 334 315 255 162 231 150 191 137 153 239 226 243 245 332 336 328 294 260 224 205 187 177 174 172 176 182 190 187 192 196 196 193 195
232 238 270 279 299 322 266 357 348 351 326 336 239 289 117 206 188 144 204 205 219 230 220 270 320 329 332 307 248 221 199 177 173 173 178 180 177 174 179 180 188 188 194 200
246 250 268 271 278 286 321 353 338 335 320 265 98 247 176 296 223 215 204 247 305 334 325 303 328 325 332 340 199 187 175 170 168 172 169 165 164 169 173 174 175 179 191 196
Wind_Speed_850mb
50 49 50 54 62 59 40 17 4 13 32 6 3 6 9 11 27 44 7 6 4 2 7 10 6 7 3 12 15 10 2 10 4 3 12 6 8 5 9 10 6 2 6 11
48 49 48 48 50 58 58 38 14 9 32 3 5 12 10 15 27 19 5 4 4 2 3 5 8 9 11 19 9 12 7 5 6 15 14 10 9 0 9 11 6 8 7 10
49 49 49 45 42 42 39 14 7 11 3 4 4 10 10 8 28 13 9 3 7 11 4 3 7 7 11 12 17 20 13 7 12 14 11 5 4 4 2 13 8 7 11 7
47 48 48 48 40 33 18 9 5 14 7 9 13 7 7 10 12 18 13 3 6 6 4 3 9 8 5 13 9 10 10 7 4 4 6 4 4 13 15 10 10 12 9 19
44 46 47 47 43 24 10 11 13 21 19 25 13 8 10 6 16 10 18 7 13 2 8 10 12 16 7 8 2 6 6 4 4 5 7 12 10 12 14 10 9 15 20 12
43 41 43 42 44 36 12 15 8 6 13 15 8 6 13 18 21 19 2 5 10 13 5 25 24 33 31 28 18 8 9 9 7 7 3 9 9 5 6 6 6 22 10 14
41 39 38 37 35 34 27 20 13 9 7 7 7 19 25 29 27 10 9 16 10 3 16 38 39 35 30 23 11 21 10 10 5 6 7 2 14 9 6 14 10 10 19 32
38 37 35 32 30 26 22 15 8 6 7 17 19 36 18 37 44 16 3 6 8 8 11 8 10 8 6 3 7 9 14 10 5 8 6 9 12 5 9 9 3 4 22 29
36 34 35 31 28 25 18 6 6 6 11 8 13 23 17 8 10 15 15 11 0 9 7 6 8 8 10 7 5 10 13 12 10 5 7 11 11 4 26 16 6 8 46 44
36 34 32 31 27 24 18 4 6 8 11 26 20 4 8 15 14 7 9 22 8 7 5 4 5 7 9 10 17 10 5 5 10 6 5 12 14 16 21 11 13 26 51 52
39 34 31 29 26 23 18 7 10 8 14 46 55 47 35 20 8 4 19 10 7 7 6 6 7 6 9 8 9 15 14 12 8 6 5 12 13 13 18 15 36 49 48 44
35 33 30 28 26 21 23 20 12 17 26 31 34 36 36 44 44 37 13 6 11 6 3 1 2 4 3 11 5 2 5 14 10 14 12 13 23 17 27 48 56 45 39 35
34 32 31 27 26 22 22 29 15 19 24 52 37 41 25 29 44 40 18 9 2 9 18 7 6 4 8 7 7 6 7 10 8 8 2 19 38 45 42 38 38 37 28 34
30 30 29 26 25 26 25 30 10 12 15 12 18 18 34 14 31 34 54 54 41 31 28 7 4 5 10 9 8 9 11 12 10 1 7 21 38 47 45 39 40 40 37 28
29 29 27 26 24 29 29 28 21 18 15 11 35 69 35 28 35 35 40 53 55 41 7 5 7 8 3 3 5 2 13 12 9 11 42 30 48 48 47 53 54 49 46 41
29 27 23 23 24 26 19 5 8 29 24 11 8 22 37 21 28 27 45 49 50 34 12 10 12 12 1 5 5 8 7 21 28 17 37 52 45 57 54 55 53 45 32 22
27 27 25 26 25 25 20 10 18 21 18 9 15 15 17 22 24 17 43 42 44 34 22 14 12 7 3 7 9 11 16 8 34 36 35 33 68 63 62 53 47 36 25 19
24 26 25 26 26 32 42 36 23 3 9 9 6 9 16 5 14 16 35 27 29 24 26 12 15 12 7 7 22 28 16 28 38 43 30 42 60 62 58 52 50 41 37 36
23 21 20 25 27 21 18 4 25 22 20 7 7 5 8 29 6 19 24 29 4 16 12 14 6 6 13 14 35 33 28 39 36 33 32 47 63 64 61 57 52 44 48 41
15 15 6 9 9 20 7 10 10 14 15 12 9 10 8 24 17 9 4 5 4 6 13 20 14 21 27 29 36 33 33 32 48 61 60 65 66 67 68 59 51 43 40 37
11 7 10 15 19 16 12 12 15 16 7 15 17 39 16 20 4 5 9 3 3 5 8 12 8 10 31 50 48 46 45 49 53 59 56 58 51 70 65 53 44 38 34 29
10 9 21 21 7 13 8 7 11 9 9 13 15 24 36 18 19 2 5 1 3 11 22 6 12 6 48 64 68 71 60 52 50 68 62 60 59 59 55 49 38 35 34 38
13 6 7 9 10 9 9 9 6 7 12 16 22 8 14 22 20 6 8 8 9 7 3 8 7 36 35 60 60 66 63 54 60 66 58 57 58 53 49 43 38 38 42 43
8 6 8 7 7 7 3 5 6 22 28 35 22 16 16 15 8 7 6 8 3 4 6 9 5 34 23 44 56 69 60 69 72 69 62 60 52 57 52 44 44 44 43 41
6 7 7 8 15 10 20 20 17 22 35 29 24 12 10 2 6 6 5 5 8 9 8 5 24 54 47 43 37 62 67 79 77 71 66 58 55 58 56 51 44 38 35 33
7 11 7 23 18 13 10 17 24 27 32 35 4 4 5 8 6 7 11 5 10 8 6 18 23 35 47 39 33 61 76 87 78 73 67 61 62 61 55 45 35 31 27 24
6 12 19 38 42 34 18 25 29 43 27 3 6 7 7 4 5 5 7 4 6 15 14 14 18 29 40 27 32 73 85 84 80 71 71 69 62 52 45 41 36 26 17 20
Wind_Direction_850mb
341 341 342 344 341 339 352 4 340 165 169 134 183 194 207 247 271 308 313 102 87 101 333 346 80 115 126 119 127 106 49 130 130 209 277 191 150 153 121 117 261 192 157 266
344 341 343 346 349 345 348 337 297 177 203 177 269 284 277 266 272 261 249 317 331 135 239 58 81 72 12 100 85 147 187 33 49 352 352 354 75 239 126 107 81 198 144 266
345 344 342 344 348 341 337 333 348 333 345 72 56 349 278 281 303 227 149 131 53 22 12 146 148 111 39 56 101 89 92 105 152 190 206 193 298 276 287 126 119 211 218 131
345 347 344 342 350 352 3 354 340 4 335 334 332 254 276 325 347 354 38 22 157 143 300 329 118 93 105 37 81 68 94 131 125 214 292 347 265 299 239 166 193 158 218 161
347 348 348 345 348 7 34 30 3 348 305 307 332 327 352 338 332 355 329 351 293 93 171 209 168 134 126 170 27 84 31 195 113 301 334 358 313 291 248 206 137 67 110 71
346 348 349 350 351 5 32 10 350 330 309 338 3 30 322 314 338 302 292 279 79 58 308 120 158 156 173 163 141 143 131 127 89 252 345 15 347 291 136 122 61 138 167 189
338 343 346 352 353 358 13 17 8 356 290 324 5 326 327 337 311 266 76 28 104 15 129 107 104 101 117 131 136 137 127 113 118 204 37 232 237 296 130 99 56 124 105 142
331 335 339 344 347 344 355 357 10 337 295 335 309 350 328 329 355 351 8 118 108 81 89 58 56 357 67 258 109 158 142 122 101 146 188 283 305 235 159 153 66 132 124 117
330 329 332 336 338 334 354 133 338 290 310 230 358 324 330 333 326 336 9 53 84 159 89 93 141 184 182 199 55 66 74 85 120 126 141 220 245 188 112 81 328 122 141 148
326 327 326 329 332 329 344 126 3 306 278 275 303 352 320 334 337 287 332 334 344 351 94 110 155 226 171 159 162 175 101 50 154 138 175 281 244 183 122 102 229 149 156 164
318 319 321 324 327 321 328 253 234 344 277 273 268 270 284 296 298 336 319 352 352 43 70 135 215 166 220 139 190 174 162 147 193 99 117 266 236 151 150 169 143 147 153 161
313 312 315 316 318 313 303 296 278 276 267 259 274 269 257 258 259 274 289 279 297 350 72 259 121 188 93 157 215 7 121 173 181 165 209 227 193 163 149 157 154 154 153 151
309 308 308 305 310 309 290 292 328 318 301 295 272 271 288 260 243 241 226 260 89 56 18 301 261 214 128 148 223 142 8 151 132 85 279 150 135 135 148 162 162 164 178 163
306 306 307 304 302 304 290 277 281 276 294 275 288 284 280 231 229 243 233 243 261 297 317 281 247 227 186 195 188 143 190 127 158 243 95 144 160 162 165 169 167 163 163 173
303 306 302 303 300 303 293 278 273 227 244 294 295 304 288 246 241 232 237 233 246 259 241 259 236 264 107 10 73 155 180 171 156 216 181 179 192 177 178 169 167 168 165 170
291 298 292 294 294 304 309 292 185 191 231 263 293 304 294 259 227 254 218 222 223 223 199 229 251 251 204 121 183 251 209 217 231 196 184 202 189 179 183 177 172 174 178 185
282 282 286 288 286 282 257 227 163 191 205 240 292 284 277 306 236 223 202 200 210 218 220 225 259 297 232 148 172 190 101 128 216 217 186 151 168 176 179 177 172 173 171 170
273 280 285 288 283 273 270 239 201 270 266 248 270 271 295 298 194 190 200 193 211 216 217 239 208 248 217 224 213 200 163 153 155 160 171 178 179 172 169 174 173 174 173 172
274 280 289 287 263 264 298 197 201 219 225 250 260 269 269 348 330 195 186 198 140 225 196 205 217 222 221 206 180 191 195 175 175 176 173 165 170 168 171 177 178 180 174 178
266 280 262 252 233 306 247 167 178 181 220 235 255 273 274 337 340 18 135 99 231 203 222 201 221 238 239 224 197 222 226 210 185 158 152 163 167 173 176 184 191 195 189 186
230 227 238 261 310 171 210 201 185 191 228 218 230 229 244 266 306 259 38 78 275 267 253 171 230 231 218 226 223 217 218 225 207 208 201 200 197 180 178 186 193 199 199 200
198 257 282 282 231 214 217 224 170 182 220 217 204 224 212 231 226 157 149 10 252 244 347 257 233 239 210 218 222 229 231 226 213 205 194 188 189 187 186 189 196 207 209 208
238 262 263 209 230 243 198 194 216 194 215 213 207 199 183 206 197 166 174 211 239 297 248 261 242 203 222 220 228 225 224 205 197 187 186 188 188 189 192 193 198 205 209 204
220 238 269 203 229 247 75 330 309 290 315 319 255 205 211 174 152 173 187 218 105 247 211 249 320 355 277 228 229 224 203 188 183 182 180 179 181 188 193 198 198 202 196 195
229 239 246 240 242 339 295 335 325 328 340 334 315 255 162 231 150 191 137 153 239 226 243 245 332 336 328 294 260 224 205 187 177 174 172 176 182 190 187 192 196 196 193 195
232 238 270 279 299 322 266 357 348 351 326 336 239 289 117 206 188 144 204 205 219 230 220 270 320 329 332 307 248 221 199 177 173 173 178 180 177 174 179 180 188 188 194 200
246 250 268 271 278 286 321 353 338 335 320 265 98 247 176 296 223 215 204 247 305 334 325 303 328 325 332 340 199 187 175 170 168 172 169 165 164 169 173 174 175 179 191 196